{"data":{"norad_id":89349,"intl_designator":"","name":"UNKNOWN","alt_names":[],"object_type":"UNKNOWN","status":"UNKNOWN","operator":null,"country":null,"launch_date":null,"launch_site_code":null,"launch_vehicle":null,"mission":null,"orbit_class":"UNKNOWN","rcs_meters":null,"size_class":null,"mass_kg":null,"dimensions":null,"purposes":[],"wikipedia_slug":null,"has_3d_model":false,"image_url":null,"decayed_at":null,"tle_current":{"epoch":"2026-05-23T09:24:23.652288Z","epoch_age_seconds":204179,"freshness":"STALE","line1":"1 89349U          26143.39194042  .00000495  00000+0  17041-2 0  9993","line2":"2 89349  90.2495  11.0199 0028543 198.6073 161.4005 12.96318110499697","mean_motion":12.9631811,"eccentricity":0.0028543,"inclination_deg":90.2495,"raan_deg":11.0199,"arg_perigee_deg":198.6073,"mean_anomaly_deg":161.4005,"bstar":0.0017041,"rev_number":49969,"period_min":111.08384499851,"perigee_km":1254.7014379664,"apogee_km":1298.398985383,"semimajor_km":7654.6872116747,"source":"CELESTRAK","updated_at":"2026-05-25T13:38:11.780690Z"}}}